Regional Weather Roundup
Issued by NWS San Angelo, TX

Home | Current Version | Previous Version | Graphics & Text | Print | Product List | Glossary Off
Versions: 1 2 3 4 5 6 7 8 9 10 11 12 13 14 15 16 17 18 19 20 21 22 23 24 25 26 27 28 29 30 31 32 33 34 35 36 37 38 39 40 41 42 43 44 45 46 47 48 49 50

000
ASUS44 KSJT 011758
RWRSJT
WEST CENTRAL TEXAS REGIONAL WEATHER ROUNDUP
NATIONAL WEATHER SERVICE SAN ANGELO TX
1200 PM CST WED MAR 01 2017

NOTE: "FAIR" INDICATES FEW OR NO CLOUDS BELOW 12,000 FEET WITH NO
SIGNIFICANT WEATHER AND/OR OBSTRUCTIONS TO VISIBILITY.

TXZ049-054-064>066-071>073-076>078-098-099-113-114-127-128-139-140-
154-155-168>170-011900
...LOCATIONS ACROSS WEST CENTRAL TEXAS...

CITY           SKY/WX    TMP DP  RH WIND       PRES   REMARKS
SAN ANGELO     SUNNY     59  25  27 N14G23    30.30R
ABILENE        SUNNY     56  14  19 N21G29    30.30S
DYESS AFB      NOT AVBL
JUNCTION       SUNNY     61  32  33 N14       30.24R
SWEETWATER     NOT AVBL
BROWNWOOD      NOT AVBL
COLEMAN        NOT AVBL
SONORA         NOT AVBL
OZONA          NOT AVBL
BRADY          NOT AVBL
$$

TEXAS PANHANDLE/OKLAHOMA PANHANDLE

CITY           SKY/WX    TMP DP  RH WIND       PRES   REMARKS
AMARILLO       SUNNY     49  10  20 E8        30.33S
BORGER         SUNNY     49   7  18 VRB6G21   30.33S
CANADIAN       NOT AVBL
DALHART        SUNNY     49  10  20 N6        30.32R
DUMAS          NOT AVBL
GUYMON         NOT AVBL
HEREFORD       NOT AVBL
PAMPA          NOT AVBL
PERRYTON       NOT AVBL
$$

SOUTHERN PANHANDLE/SOUTH PLAINS/ROLLING PLAINS

CITY           SKY/WX    TMP DP  RH WIND       PRES   REMARKS
LUBBOCK        PTSUNNY   52   8  17 NE13      30.32S
SNYDER         NOT AVBL
CHILDRESS      SUNNY     55   7  14 N12       30.34R
SEMINOLE       NOT AVBL
$$

PERMIAN BASIN

CITY           SKY/WX    TMP DP  RH WIND       PRES   REMARKS
MIDLAND        SUNNY     55  17  22 NE14      30.31S
ODESSA         SUNNY     55  17  22 E15G21    30.32R
WINK           SUNNY     58  21  24 N10G21    30.30R
$$

FAR WEST/SOUTHWEST MOUNTAINS/TRANS PECOS

CITY           SKY/WX    TMP DP  RH WIND       PRES   REMARKS
ALPINE         NOT AVBL
DRYDEN         NOT AVBL
EL PASO        MOSUNNY   57  19  22 NE10      30.31R
FORT STOCKTON  SUNNY     61  25  25 NE10      30.30S
GUADALUPE PASS NOT AVBL
MARFA          NOT AVBL
PECOS          NOT AVBL
$$

DALLAS/FORT WORTH METROPLEX

CITY           SKY/WX    TMP DP  RH WIND       PRES   REMARKS
DFW AIRPORT    MOSUNNY   63  23  21 N17G25    30.22R
FTW MEACHAM    SUNNY     63  18  17 N20G26    30.24R
DAL-EXECUTIVE  SUNNY     62  26  25 N16G28    30.22R
GRAND PRAIRIE  SUNNY     61  27  27 NW9G21    30.26R
ADDISON        SUNNY     61  23  23 N16G29    30.24R
MESQUITE       CLEAR     61  25  25 N17G25    30.23R
LANCASTER      NOT AVBL
$$

NORTH CENTRAL TEXAS

CITY           SKY/WX    TMP DP  RH WIND       PRES   REMARKS
SHRMAN/DENISON NOT AVBL
GAINESVILLE    NOT AVBL
BRIDGEPORT     NOT AVBL
DENTON         SUNNY     61  18  18 N18       30.25R
WAXAHACHIE     NOT AVBL
GRANBURY       NOT AVBL
$$

WESTERN NORTH TEXAS

CITY           SKY/WX    TMP DP  RH WIND       PRES   REMARKS
WICHITA FALLS  MOSUNNY   59  18  20 N23G32    30.30R
VERNON         NOT AVBL
BRECKENRIDGE   NOT AVBL
COMANCHE       NOT AVBL
$$

CENTRAL AND SOUTH CENTRAL TEXAS

CITY           SKY/WX    TMP DP  RH WIND       PRES   REMARKS
AUSTIN/BERGSTM PTSUNNY   71  43  36 N16       30.17R
WACO           MOSUNNY   63  36  36 N24G30    30.21R
HILLSBORO      NOT AVBL
TEMPLE         MOSUNNY   62  38  40 N15G23    30.21R
KILLEEN-GRAY   NOT AVBL
FORT HOOD      NOT AVBL
GEORGETOWN     SUNNY     66  36  32 N20G25    30.20R
LAGO VISTA     NOT AVBL
SAN MARCOS     SUNNY     73  43  33 N25       30.17R
NEW BRAUNFELS  MOSUNNY   76  41  28 N18       30.14R
RANDOLPH AFB   NOT AVBL
SAN ANTONIO    PTSUNNY   75  38  26 N18G24    30.15R
STINSON        MOSUNNY   78  38  23 N17G28    30.12R
PLEASANTON     NOT AVBL
LA GRANGE      NOT AVBL
GIDDINGS       NOT AVBL
$$

EAST TEXAS

CITY           SKY/WX    TMP DP  RH WIND       PRES   REMARKS
PARIS          NOT AVBL
CLARKSVILLE    NOT AVBL
TYLER          MOSUNNY   64  35  34 NW16      30.17R
LONGVIEW       MOSUNNY   65  39  38 N16G24    30.14R
PALESTINE      NOT AVBL
NACOGDOCHES    NOT AVBL
$$

TEXAS HILL COUNTRY AND EDWARDS PLATEAU

CITY           SKY/WX    TMP DP  RH WIND       PRES   REMARKS
LLANO          NOT AVBL
HORSESHOE BAY  NOT AVBL
KERRVILLE      NOT AVBL
FREDERICKSBRG  NOT AVBL
ROCKSPRINGS    NOT AVBL
HONDO          CLOUDY    78  37  22 NE20G25   30.16R
UVALDE         NOT AVBL
DEL RIO        SUNNY     76  31  19 NW14G25   30.18R
$$

SOUTHEAST TEXAS

CITY           SKY/WX    TMP DP  RH WIND       PRES   REMARKS
COLLEGE STN    PTSUNNY   72  45  37 N18       30.14R
CALDWELL       NOT AVBL
CROCKETT       NOT AVBL
BRENHAM        NOT AVBL
HUNTSVILLE     MOSUNNY   73  45  36 N8G22     30.10R
CONROE         SUNNY     80  54  40 N15G21    30.06R
HOUSTON BUSH   CLOUDY    83  61  47 N16       30.04R
HOUSTON HOBBY  PTSUNNY   82  64  54 NW9       30.02S
PERLAND        LGT RAIN  82  66  58 W7        30.04S
WHARTON        NOT AVBL
$$

THE UPPER TEXAS COAST

CITY           SKY/WX    TMP DP  RH WIND       PRES   REMARKS
ORANGE         NOT AVBL
PORT ARTHUR    MOSUNNY   84  69  60 W10       30.01F
GALVESTON      CLOUDY    77  72  84 S8        30.03F HAZE
ANGLETON       MOSUNNY   81  70  69 VRB3      30.02F
BAY CITY       NOT AVBL
$$

TEXAS COASTAL BEND, RIO GRANDE PLAINS DEEP SOUTH TEXAS

CITY           SKY/WX    TMP DP  RH WIND       PRES   REMARKS
VICTORIA       PTSUNNY   82  53  36 N16       30.06R
BEEVILLE       NOT AVBL
ROCKPORT       CLOUDY    78  69  73 SE5       30.03S HAZE
PORT ARANSAS   NOT AVBL
PORT LAVACA    NOT AVBL
CORPUS CHRISTI CLOUDY    79  70  74 SE6       30.03S
KINGSVILLE NAS NOT AVBL
COTULLA        MOSUNNY   82  34  17 NE15G25   30.12R
LAREDO         NOT AVBL
BROWNSVILLE    MOSUNNY   84  69  60 S14       30.00S
PORT ISABEL    CLOUDY    83  69  62 S8        30.00R
HEBBRONVILLE   NOT AVBL
MCALLEN        CLOUDY    84  68  58 NW6       30.01F
WESLACO        NOT AVBL
FALFURRIAS     NOT AVBL
EDINBURG       NOT AVBL
$$



USA.gov is the U.S. government's official web portal to all federal, state and local government web resources and services.